When you browse on this site, cookies collect data to enhance your experience and personalize the content and advertising you see.
Visit our Privacy Policy to learn more. By continuing to use the site, you agree to this use of cookies and data.
EN

Hourly Weather Plovdiv

Today, 8 July, Wednesday

Time Temperature Precipitation Wind Pressure Humidity
00:00 +17°C° 0 mm 2 mps 736 mmHg 80%
01:00 +17°C° 0 mm 2 mps 736 mmHg 81%
02:00 +16°C° 0 mm 3 mps 737 mmHg 81%
03:00 +16°C° 0 mm 2 mps 737 mmHg 80%
04:00 +16°C° 0 mm 2 mps 737 mmHg 79%
05:00 +15°C° 0 mm 2 mps 737 mmHg 78%
06:00 +17°C° 0 mm 2 mps 738 mmHg 72%
07:00 +18°C° 0 mm 2 mps 738 mmHg 66%
08:00 +20°C° 0 mm 3 mps 739 mmHg 62%
09:00 +21°C° 0 mm 3 mps 739 mmHg 57%
10:00 +24°C° 0 mm 2 mps 739 mmHg 53%
11:00 +25°C° 0 mm 2 mps 740 mmHg 49%
12:00 +26°C° 0 mm 2 mps 739 mmHg 48%
13:00 +26°C° 0 mm 2 mps 739 mmHg 47%
14:00 +27°C° 0 mm 2 mps 739 mmHg 46%
15:00 +27°C° 0 mm 2 mps 739 mmHg 47%
16:00 +27°C° 0 mm 2 mps 739 mmHg 48%
17:00 +27°C° 0 mm 2 mps 739 mmHg 50%
18:00 +25°C° 0 mm 2 mps 739 mmHg 58%
19:00 +23°C° 0 mm 1 mps 739 mmHg 66%
20:00 +21°C° 0 mm 1 mps 739 mmHg 74%
21:00 +20°C° 0 mm 1 mps 739 mmHg 75%
22:00 +20°C° 0 mm 1 mps 740 mmHg 76%
23:00 +19°C° 0 mm 1 mps 740 mmHg 78%

Tomorrow, 9 July, Thursday

Time Temperature Precipitation Wind Pressure Humidity
00:00 +19°C° 0 mm 1 mps 740 mmHg 79%
01:00 +18°C° 0 mm 1 mps 740 mmHg 81%
02:00 +18°C° 0 mm 1 mps 740 mmHg 83%
03:00 +16°C° 0 mm 1 mps 740 mmHg 84%
04:00 +16°C° 0 mm 1 mps 740 mmHg 86%
05:00 +16°C° 0 mm 1 mps 740 mmHg 87%
06:00 +19°C° 0 mm 1 mps 740 mmHg 80%
07:00 +21°C° 0 mm 1 mps 741 mmHg 73%
08:00 +23°C° 0 mm 1 mps 741 mmHg 66%
09:00 +24°C° 0 mm 1 mps 741 mmHg 60%
10:00 +26°C° 0 mm 1 mps 741 mmHg 55%
11:00 +27°C° 0 mm 2 mps 741 mmHg 49%
12:00 +28°C° 0 mm 2 mps 741 mmHg 46%
13:00 +29°C° 0 mm 2 mps 740 mmHg 44%
14:00 +29°C° 0 mm 2 mps 740 mmHg 41%
15:00 +29°C° 0 mm 2 mps 740 mmHg 42%
16:00 +29°C° 0 mm 2 mps 740 mmHg 43%
17:00 +29°C° 0 mm 2 mps 739 mmHg 44%
18:00 +27°C° 0 mm 2 mps 739 mmHg 52%
19:00 +24°C° 0 mm 1 mps 739 mmHg 59%
20:00 +22°C° 0 mm 1 mps 739 mmHg 67%
21:00 +22°C° 0 mm 1 mps 740 mmHg 68%
22:00 +21°C° 0 mm 1 mps 740 mmHg 70%
23:00 +21°C° 0 mm 1 mps 741 mmHg 71%

Day after tomorrow, 10 July, Friday

Time Temperature Precipitation Wind Pressure Humidity
00:00 +20°C° 0 mm 1 mps 740 mmHg 74%
01:00 +20°C° 0 mm 1 mps 740 mmHg 76%
02:00 +19°C° 0 mm 1 mps 740 mmHg 79%
03:00 +19°C° 0 mm 1 mps 740 mmHg 81%
04:00 +19°C° 0 mm 1 mps 740 mmHg 82%
05:00 +18°C° 0 mm 1 mps 740 mmHg 84%
06:00 +20°C° 0 mm 1 mps 740 mmHg 77%
07:00 +22°C° 0 mm 1 mps 740 mmHg 70%
08:00 +24°C° 0 mm 1 mps 740 mmHg 63%
09:00 +26°C° 0 mm 1 mps 740 mmHg 57%
10:00 +27°C° 0 mm 2 mps 740 mmHg 52%
11:00 +29°C° 0 mm 3 mps 740 mmHg 47%
12:00 +29°C° 0 mm 3 mps 740 mmHg 45%
13:00 +30°C° 0 mm 3 mps 740 mmHg 44%
14:00 +31°C° 0 mm 3 mps 739 mmHg 42%
15:00 +30°C° 0 mm 3 mps 739 mmHg 43%
16:00 +30°C° 0 mm 3 mps 739 mmHg 45%
17:00 +30°C° 0 mm 3 mps 739 mmHg 46%
18:00 +28°C° 0 mm 3 mps 739 mmHg 54%
19:00 +26°C° 0 mm 2 mps 739 mmHg 62%
20:00 +24°C° 0 mm 2 mps 739 mmHg 70%
21:00 +23°C° 0 mm 2 mps 739 mmHg 72%
22:00 +21°C° 0 mm 2 mps 739 mmHg 74%
23:00 +20°C° 0 mm 2 mps 740 mmHg 75%

11 July, Saturday

Time Temperature Precipitation Wind Pressure Humidity
00:00 +20°C° 0 mm 1 mps 739 mmHg 78%
01:00 +20°C° 0 mm 1 mps 739 mmHg 81%
02:00 +19°C° 0 mm 1 mps 739 mmHg 84%
03:00 +19°C° 0 mm 1 mps 739 mmHg 86%
04:00 +18°C° 0 mm 1 mps 739 mmHg 87%
05:00 +16°C° 0 mm 0 mps 739 mmHg 89%
06:00 +20°C° 0 mm 1 mps 739 mmHg 81%
07:00 +22°C° 0 mm 1 mps 739 mmHg 74%
08:00 +24°C° 0 mm 1 mps 739 mmHg 66%
09:00 +25°C° 0 mm 1 mps 739 mmHg 61%
10:00 +27°C° 0 mm 2 mps 739 mmHg 55%
11:00 +28°C° 0 mm 2 mps 739 mmHg 50%
12:00 +29°C° 0 mm 2 mps 738 mmHg 48%
13:00 +30°C° 0 mm 3 mps 738 mmHg 46%
14:00 +31°C° 0 mm 3 mps 737 mmHg 44%
15:00 +31°C° 0 mm 3 mps 737 mmHg 46%
16:00 +30°C° 0 mm 3 mps 737 mmHg 48%
17:00 +30°C° 0 mm 3 mps 737 mmHg 50%
18:00 +28°C° 0 mm 2 mps 737 mmHg 59%
19:00 +26°C° 0 mm 2 mps 737 mmHg 68%
20:00 +24°C° 0 mm 1 mps 737 mmHg 78%
21:00 +23°C° 0 mm 1 mps 737 mmHg 79%
22:00 +23°C° 0 mm 1 mps 737 mmHg 81%
23:00 +22°C° 0 mm 1 mps 737 mmHg 82%

12 July, Sunday

Time Temperature Precipitation Wind Pressure Humidity
00:00 +21°C° 0 mm 1 mps 737 mmHg 84%
01:00 +21°C° 0 mm 1 mps 737 mmHg 86%
02:00 +20°C° 0 mm 1 mps 737 mmHg 88%
03:00 +20°C° 0 mm 1 mps 737 mmHg 89%
04:00 +20°C° 0 mm 1 mps 737 mmHg 90%
05:00 +20°C° 0 mm 1 mps 737 mmHg 90%
06:00 +22°C° 0 mm 1 mps 737 mmHg 83%
07:00 +24°C° 0 mm 1 mps 737 mmHg 76%
08:00 +26°C° 0 mm 2 mps 738 mmHg 69%
09:00 +27°C° 0 mm 2 mps 738 mmHg 63%
10:00 +29°C° 0 mm 2 mps 738 mmHg 58%
11:00 +30°C° 0 mm 2 mps 738 mmHg 52%
12:00 +30°C° 0 mm 2 mps 738 mmHg 51%
13:00 +31°C° 0 mm 2 mps 738 mmHg 49%
14:00 +31°C° 0 mm 2 mps 737 mmHg 48%
15:00 +31°C° 0 mm 2 mps 737 mmHg 49%
16:00 +31°C° 0 mm 2 mps 737 mmHg 50%
17:00 +31°C° 0 mm 2 mps 737 mmHg 51%
18:00 +29°C° 0.1 mm 2 mps 737 mmHg 61%
19:00 +27°C° 0.1 mm 1 mps 737 mmHg 70%
20:00 +25°C° 0.1 mm 1 mps 737 mmHg 80%
21:00 +24°C° 0 mm 1 mps 738 mmHg 82%
22:00 +23°C° 0 mm 2 mps 738 mmHg 84%
23:00 +21°C° 0 mm 2 mps 739 mmHg 86%

13 July, Monday

Time Temperature Precipitation Wind Pressure Humidity
00:00 +21°C° 0 mm 2 mps 738 mmHg 86%
01:00 +20°C° 0 mm 2 mps 738 mmHg 86%
02:00 +20°C° 0 mm 2 mps 738 mmHg 86%
03:00 +19°C° 0 mm 2 mps 738 mmHg 86%
04:00 +19°C° 0 mm 2 mps 738 mmHg 86%
05:00 +18°C° 0 mm 2 mps 738 mmHg 86%
06:00 +20°C° 0 mm 2 mps 738 mmHg 82%
07:00 +21°C° 0 mm 2 mps 739 mmHg 77%
08:00 +23°C° 0 mm 2 mps 739 mmHg 72%
09:00 +25°C° 0 mm 2 mps 739 mmHg 65%
10:00 +26°C° 0 mm 2 mps 739 mmHg 58%
11:00 +28°C° 0 mm 2 mps 739 mmHg 52%
12:00 +29°C° 0.1 mm 2 mps 739 mmHg 49%
13:00 +29°C° 0.1 mm 2 mps 739 mmHg 46%
14:00 +30°C° 0.1 mm 2 mps 738 mmHg 43%
15:00 +29°C° 0 mm 2 mps 738 mmHg 45%
16:00 +29°C° 0 mm 3 mps 738 mmHg 46%
17:00 +29°C° 0 mm 3 mps 738 mmHg 47%
18:00 +27°C° 0 mm 3 mps 738 mmHg 57%
19:00 +25°C° 0 mm 2 mps 738 mmHg 66%
20:00 +21°C° 0 mm 2 mps 738 mmHg 76%
21:00 +21°C° 0 mm 2 mps 739 mmHg 77%
22:00 +20°C° 0 mm 2 mps 739 mmHg 79%
23:00 +20°C° 0 mm 1 mps 739 mmHg 81%
Show more